Time,TemperatureF,DewpointF,PressureIn,WindDirection,WindDirectionDegrees,WindSpeedMPH,WindSpeedGustMPH,Humidity,HourlyPrecipIn,Conditions,Clouds,dailyrainin,SoftwareType,DateUTC
2013-02-02 00:00:00,48.4,36.8,30.30,NNW,335,0.0,0.0,64,0.00,,CLR,0.00,VWS V14.01,2013-02-02 05:00:00,
2013-02-02 00:01:00,48.3,37.1,30.30,NNW,335,0.0,0.0,65,0.00,,CLR,0.00,VWS V14.01,2013-02-02 05:01:00,
2013-02-02 00:06:00,47.8,36.6,30.30,NNW,335,0.0,0.0,65,0.00,,CLR,0.00,VWS V14.01,2013-02-02 05:06:00,
2013-02-02 00:11:00,47.4,36.2,30.29,NNW,335,0.0,0.0,65,0.00,,CLR,0.00,VWS V14.01,2013-02-02 05:11:00,
2013-02-02 00:16:00,47.1,36.0,30.30,NNW,335,0.0,0.0,65,0.00,,CLR,0.00,VWS V14.01,2013-02-02 05:16:00,
2013-02-02 00:21:00,46.9,36.2,30.29,NNW,335,0.0,0.0,66,0.00,,CLR,0.00,VWS V14.01,2013-02-02 05:21:00,
2013-02-02 00:26:00,46.6,35.9,30.29,NNW,335,0.0,0.0,66,0.00,,CLR,0.00,VWS V14.01,2013-02-02 05:26:00,
2013-02-02 00:31:00,46.3,36.0,30.30,NNW,335,0.0,0.0,67,0.00,,CLR,0.00,VWS V14.01,2013-02-02 05:31:00,
2013-02-02 00:36:00,45.9,36.3,30.30,NNW,335,0.0,0.0,69,0.00,,CLR,0.00,VWS V14.01,2013-02-02 05:36:00,
2013-02-02 00:41:00,45.6,36.0,30.30,NNW,335,0.0,0.0,69,0.00,,CLR,0.00,VWS V14.01,2013-02-02 05:41:00,
2013-02-02 00:47:00,45.2,36.0,30.30,NNW,335,0.0,0.0,70,0.00,,CLR,0.00,VWS V14.01,2013-02-02 05:47:00,
2013-02-02 00:52:00,44.9,36.1,30.30,NNW,335,0.0,0.0,71,0.00,,CLR,0.00,VWS V14.01,2013-02-02 05:52:00,
2013-02-02 00:57:00,44.7,36.2,30.30,NNW,335,0.0,0.0,72,0.00,,CLR,0.00,VWS V14.01,2013-02-02 05:57:00,
2013-02-02 01:02:00,44.5,36.0,30.30,NNW,335,0.0,0.0,72,0.00,,CLR,0.00,VWS V14.01,2013-02-02 06:02:00,
2013-02-02 01:07:00,44.4,36.0,30.30,NNW,335,0.0,0.0,72,0.00,,CLR,0.00,VWS V14.01,2013-02-02 06:07:00,
2013-02-02 01:12:00,44.3,36.5,30.30,NNW,335,0.0,0.0,74,0.00,,CLR,0.00,VWS V14.01,2013-02-02 06:12:00,
2013-02-02 01:17:00,44.3,36.5,30.30,NNW,335,0.0,0.0,74,0.00,,CLR,0.00,VWS V14.01,2013-02-02 06:17:00,
2013-02-02 01:22:00,44.3,36.5,30.30,NNW,335,0.0,2.0,74,0.00,,CLR,0.00,VWS V14.01,2013-02-02 06:22:00,
2013-02-02 01:27:00,44.4,36.3,30.30,NNW,335,0.0,0.0,73,0.00,,CLR,0.00,VWS V14.01,2013-02-02 06:27:00,
2013-02-02 01:32:00,44.5,36.7,30.30,NNW,335,0.0,2.0,74,0.00,,CLR,0.00,VWS V14.01,2013-02-02 06:32:00,
2013-02-02 01:38:00,44.6,36.5,30.30,NNW,335,0.0,2.0,73,0.00,,CLR,0.00,VWS V14.01,2013-02-02 06:38:00,
2013-02-02 01:43:00,44.8,36.7,30.30,NNW,335,0.0,2.0,73,0.00,,CLR,0.00,VWS V14.01,2013-02-02 06:43:00,
2013-02-02 01:48:00,45.0,36.5,30.30,NNW,335,0.0,2.0,72,0.00,,CLR,0.00,VWS V14.01,2013-02-02 06:48:00,
2013-02-02 01:53:00,45.3,36.5,30.29,NNW,328,0.0,4.0,71,0.00,,CLR,0.00,VWS V14.01,2013-02-02 06:53:00,
2013-02-02 01:58:00,45.5,36.7,30.30,NNW,328,0.0,4.0,71,0.00,,CLR,0.00,VWS V14.01,2013-02-02 06:58:00,
2013-02-02 02:03:00,45.6,36.8,30.30,NW,322,0.0,4.0,71,0.00,,CLR,0.00,VWS V14.01,2013-02-02 07:03:00,
2013-02-02 02:08:00,45.8,36.6,30.29,NW,322,0.0,4.0,70,0.00,,CLR,0.00,VWS V14.01,2013-02-02 07:08:00,
2013-02-02 02:13:00,45.8,36.6,30.29,WNW,287,0.0,4.0,70,0.00,,CLR,0.00,VWS V14.01,2013-02-02 07:13:00,
2013-02-02 02:18:00,45.9,37.0,30.29,NW,325,0.0,4.0,71,0.00,,CLR,0.00,VWS V14.01,2013-02-02 07:18:00,
2013-02-02 02:24:00,45.9,36.7,30.29,NW,325,0.0,2.0,70,0.00,,CLR,0.00,VWS V14.01,2013-02-02 07:24:00,
2013-02-02 02:29:00,45.7,36.5,30.28,NW,325,0.0,0.0,70,0.00,,CLR,0.00,VWS V14.01,2013-02-02 07:29:00,
2013-02-02 02:34:00,45.5,36.7,30.29,NW,325,0.0,2.0,71,0.00,,CLR,0.00,VWS V14.01,2013-02-02 07:34:00,
2013-02-02 02:39:00,45.3,36.5,30.28,NW,325,0.0,0.0,71,0.00,,CLR,0.00,VWS V14.01,2013-02-02 07:39:00,
2013-02-02 02:44:00,45.1,36.6,30.28,NW,325,0.0,2.0,72,0.00,,CLR,0.00,VWS V14.01,2013-02-02 07:44:00,
2013-02-02 02:49:00,44.9,36.4,30.28,NW,325,0.0,0.0,72,0.00,,CLR,0.00,VWS V14.01,2013-02-02 07:49:00,
2013-02-02 02:54:00,44.7,36.6,30.28,NW,325,0.0,0.0,73,0.00,,CLR,0.00,VWS V14.01,2013-02-02 07:54:00,
2013-02-02 02:59:00,44.6,36.5,30.29,NW,325,0.0,0.0,73,0.00,,CLR,0.00,VWS V14.01,2013-02-02 07:59:00,
2013-02-02 03:06:00,44.4,36.7,30.28,NW,325,0.0,0.0,74,0.00,,CLR,0.00,VWS V14.01,2013-02-02 08:06:00,
2013-02-02 03:11:00,44.1,36.4,30.28,NW,325,0.0,0.0,74,0.00,,CLR,0.00,VWS V14.01,2013-02-02 08:11:00,
2013-02-02 03:16:00,43.9,36.2,30.29,NW,325,0.0,0.0,74,0.00,,CLR,0.00,VWS V14.01,2013-02-02 08:16:00,
2013-02-02 03:21:00,43.7,36.3,30.28,NW,325,0.0,2.0,75,0.00,,CLR,0.00,VWS V14.01,2013-02-02 08:21:00,
2013-02-02 03:26:00,43.6,36.2,30.29,NW,325,0.0,0.0,75,0.00,,CLR,0.00,VWS V14.01,2013-02-02 08:26:00,
2013-02-02 03:31:00,43.5,36.5,30.28,NW,325,0.0,0.0,76,0.00,,CLR,0.00,VWS V14.01,2013-02-02 08:31:00,
2013-02-02 03:36:00,43.3,36.3,30.28,NW,325,0.0,0.0,76,0.00,,CLR,0.00,VWS V14.01,2013-02-02 08:36:00,
2013-02-02 03:41:00,43.2,36.2,30.29,NW,325,0.0,0.0,76,0.00,,CLR,0.00,VWS V14.01,2013-02-02 08:41:00,
2013-02-02 03:46:00,43.1,36.1,30.29,NW,325,0.0,0.0,76,0.00,,CLR,0.00,VWS V14.01,2013-02-02 08:46:00,
2013-02-02 03:52:00,43.0,36.3,30.28,NW,325,0.0,0.0,77,0.00,,CLR,0.00,VWS V14.01,2013-02-02 08:52:00,
2013-02-02 03:57:00,42.9,35.9,30.29,NW,325,0.0,0.0,76,0.00,,CLR,0.00,VWS V14.01,2013-02-02 08:57:00,
2013-02-02 04:02:00,42.7,36.0,30.29,NW,325,0.0,0.0,77,0.00,,CLR,0.00,VWS V14.01,2013-02-02 09:02:00,
2013-02-02 04:07:00,42.5,36.1,30.28,NW,325,0.0,0.0,78,0.00,,CLR,0.00,VWS V14.01,2013-02-02 09:07:00,
2013-02-02 04:12:00,42.2,35.8,30.29,NW,325,0.0,0.0,78,0.00,,CLR,0.00,VWS V14.01,2013-02-02 09:12:00,
2013-02-02 04:17:00,42.1,35.8,30.29,NW,325,0.0,0.0,78,0.00,,CLR,0.00,VWS V14.01,2013-02-02 09:17:00,
2013-02-02 04:22:00,42.0,35.7,30.29,NW,325,0.0,0.0,78,0.00,,CLR,0.00,VWS V14.01,2013-02-02 09:22:00,
2013-02-02 04:27:00,41.8,35.8,30.29,NW,325,0.0,0.0,79,0.00,,CLR,0.00,VWS V14.01,2013-02-02 09:27:00,
2013-02-02 04:32:00,41.8,36.1,30.29,NW,325,0.0,0.0,80,0.00,,CLR,0.00,VWS V14.01,2013-02-02 09:32:00,
2013-02-02 04:37:00,41.8,35.8,30.28,NW,325,0.0,0.0,79,0.00,,CLR,0.00,VWS V14.01,2013-02-02 09:37:00,
2013-02-02 04:43:00,41.9,35.9,30.28,NW,325,0.0,0.0,79,0.00,,CLR,0.00,VWS V14.01,2013-02-02 09:43:00,
2013-02-02 04:48:00,41.8,35.8,30.28,NW,325,0.0,0.0,79,0.00,,CLR,0.00,VWS V14.01,2013-02-02 09:48:00,
2013-02-02 04:53:00,41.7,36.0,30.28,NW,325,0.0,0.0,80,0.00,,CLR,0.00,VWS V14.01,2013-02-02 09:53:00,
2013-02-02 04:58:00,41.6,35.9,30.28,NW,325,0.0,0.0,80,0.00,,CLR,0.00,VWS V14.01,2013-02-02 09:58:00,
2013-02-02 05:03:00,41.5,35.8,30.29,NW,325,0.0,0.0,80,0.00,,CLR,0.00,VWS V14.01,2013-02-02 10:03:00,
2013-02-02 05:08:00,41.4,36.0,30.29,NW,325,0.0,0.0,81,0.00,,CLR,0.00,VWS V14.01,2013-02-02 10:08:00,
2013-02-02 05:13:00,41.3,35.9,30.28,NW,325,0.0,0.0,81,0.00,,CLR,0.00,VWS V14.01,2013-02-02 10:13:00,
2013-02-02 05:18:00,41.2,36.1,30.29,NW,325,0.0,0.0,82,0.00,,CLR,0.00,VWS V14.01,2013-02-02 10:18:00,
2013-02-02 05:23:00,41.0,35.9,30.29,NW,325,0.0,0.0,82,0.00,,CLR,0.00,VWS V14.01,2013-02-02 10:23:00,
2013-02-02 05:29:00,41.0,35.9,30.29,NW,325,0.0,0.0,82,0.00,,CLR,0.00,VWS V14.01,2013-02-02 10:29:00,
2013-02-02 05:34:00,41.0,35.9,30.29,NW,325,0.0,0.0,82,0.00,,CLR,0.00,VWS V14.01,2013-02-02 10:34:00,
2013-02-02 05:39:00,41.0,36.2,30.29,NW,325,0.0,2.0,83,0.00,,CLR,0.00,VWS V14.01,2013-02-02 10:39:00,
2013-02-02 05:44:00,41.0,36.2,30.28,NW,325,0.0,0.0,83,0.00,,CLR,0.00,VWS V14.01,2013-02-02 10:44:00,
2013-02-02 05:49:00,41.0,36.2,30.28,NW,325,0.0,0.0,83,0.00,,CLR,0.00,VWS V14.01,2013-02-02 10:49:00,
2013-02-02 05:54:00,40.9,35.8,30.29,NW,325,0.0,0.0,82,0.00,,CLR,0.00,VWS V14.01,2013-02-02 10:54:00,
2013-02-02 05:59:00,40.8,36.0,30.29,NW,325,0.0,0.0,83,0.00,,CLR,0.00,VWS V14.01,2013-02-02 10:59:00,
2013-02-02 06:04:00,40.7,36.0,30.29,NW,325,0.0,0.0,83,0.00,,CLR,0.00,VWS V14.01,2013-02-02 11:04:00,
2013-02-02 06:09:00,40.7,36.2,30.29,NW,325,0.0,0.0,84,0.00,,CLR,0.00,VWS V14.01,2013-02-02 11:09:00,
2013-02-02 06:15:00,40.7,36.2,30.30,NW,325,0.0,0.0,84,0.00,,CLR,0.00,VWS V14.01,2013-02-02 11:15:00,
2013-02-02 06:20:00,40.6,36.2,30.30,NW,325,0.0,0.0,84,0.00,,CLR,0.00,VWS V14.01,2013-02-02 11:20:00,
2013-02-02 06:25:00,40.6,36.2,30.30,NW,325,0.0,0.0,84,0.00,,CLR,0.00,VWS V14.01,2013-02-02 11:25:00,
2013-02-02 06:30:00,40.6,36.2,30.30,NW,325,0.0,2.0,84,0.00,,CLR,0.00,VWS V14.01,2013-02-02 11:30:00,
2013-02-02 06:35:00,40.6,36.2,30.30,NW,325,0.0,2.0,84,0.00,,CLR,0.00,VWS V14.01,2013-02-02 11:35:00,
2013-02-02 06:40:00,40.7,36.2,30.31,NW,325,0.0,0.0,84,0.00,,CLR,0.00,VWS V14.01,2013-02-02 11:40:00,
2013-02-02 06:45:00,40.7,36.2,30.31,NW,325,0.0,0.0,84,0.00,,CLR,0.00,VWS V14.01,2013-02-02 11:45:00,
2013-02-02 06:50:00,40.7,36.5,30.31,NW,325,0.0,0.0,85,0.00,,CLR,0.00,VWS V14.01,2013-02-02 11:50:00,
2013-02-02 06:55:00,40.7,36.5,30.31,NW,325,0.0,0.0,85,0.00,,CLR,0.00,VWS V14.01,2013-02-02 11:55:00,
2013-02-02 07:00:00,40.8,36.3,30.31,NW,325,0.0,0.0,84,0.00,,FEW040,0.00,VWS V14.01,2013-02-02 12:00:00,
2013-02-02 07:05:00,40.8,36.3,30.31,NW,325,2.0,2.0,84,0.00,,FEW040,0.00,VWS V14.01,2013-02-02 12:05:00,
2013-02-02 07:10:00,40.9,36.5,30.31,NW,325,0.0,2.0,84,0.00,,FEW040,0.00,VWS V14.01,2013-02-02 12:10:00,
2013-02-02 07:15:00,41.0,36.5,30.32,NNW,330,0.0,2.0,84,0.00,,FEW040,0.00,VWS V14.01,2013-02-02 12:15:00,
2013-02-02 07:21:00,41.2,36.7,30.31,NW,314,4.0,8.0,84,0.00,,FEW040,0.00,VWS V14.01,2013-02-02 12:21:00,
2013-02-02 07:26:00,41.5,36.7,30.32,NNW,338,2.0,4.0,83,0.00,,FEW040,0.00,VWS V14.01,2013-02-02 12:26:00,
2013-02-02 07:31:00,41.7,36.9,30.32,NNW,338,6.0,6.0,83,0.00,,FEW040,0.00,VWS V14.01,2013-02-02 12:31:00,
2013-02-02 07:36:00,41.9,36.8,30.32,NNW,334,0.0,2.0,82,0.00,,FEW040,0.00,VWS V14.01,2013-02-02 12:36:00,
2013-02-02 07:41:00,42.0,36.9,30.32,NNW,330,2.0,2.0,82,0.00,,FEW040,0.00,VWS V14.01,2013-02-02 12:41:00,
2013-02-02 07:46:00,42.2,37.1,30.32,NW,326,4.0,4.0,82,0.00,,FEW040,0.00,VWS V14.01,2013-02-02 12:46:00,
2013-02-02 07:51:00,42.5,37.1,30.32,NW,309,4.0,4.0,81,0.00,,FEW040,0.00,VWS V14.01,2013-02-02 12:51:00,
2013-02-02 07:56:00,42.8,37.4,30.32,NW,315,0.0,10.0,81,0.00,,FEW040,0.00,VWS V14.01,2013-02-02 12:56:00,
2013-02-02 08:02:00,43.1,37.7,30.32,NW,326,2.0,2.0,81,0.00,,CLR,0.00,VWS V14.01,2013-02-02 13:02:00,
2013-02-02 08:07:00,43.4,38.0,30.32,NW,326,0.0,2.0,81,0.00,,CLR,0.00,VWS V14.01,2013-02-02 13:07:00,
2013-02-02 08:12:00,43.8,38.0,30.32,NW,326,4.0,4.0,80,0.00,,CLR,0.00,VWS V14.01,2013-02-02 13:12:00,
2013-02-02 08:17:00,44.3,38.5,30.32,NW,326,0.0,6.0,80,0.00,,CLR,0.00,VWS V14.01,2013-02-02 13:17:00,
2013-02-02 08:22:00,44.8,38.7,30.32,NW,320,2.0,6.0,79,0.00,,CLR,0.00,VWS V14.01,2013-02-02 13:22:00,
2013-02-02 08:27:00,45.2,39.1,30.32,NW,320,2.0,2.0,79,0.00,,CLR,0.00,VWS V14.01,2013-02-02 13:27:00,
2013-02-02 08:32:00,45.9,39.8,30.32,NW,304,0.0,4.0,79,0.00,,CLR,0.00,VWS V14.01,2013-02-02 13:32:00,
2013-02-02 08:38:00,46.4,39.9,30.33,NW,321,4.0,6.0,78,0.00,,CLR,0.00,VWS V14.01,2013-02-02 13:38:00,
2013-02-02 08:43:00,47.0,40.2,30.32,NNW,330,4.0,4.0,77,0.00,,CLR,0.00,VWS V14.01,2013-02-02 13:43:00,
2013-02-02 08:48:00,48.0,40.8,30.33,NW,313,0.0,6.0,76,0.00,,CLR,0.00,VWS V14.01,2013-02-02 13:48:00,
2013-02-02 08:53:00,49.1,41.2,30.33,NW,310,2.0,4.0,74,0.00,,CLR,0.00,VWS V14.01,2013-02-02 13:53:00,
2013-02-02 08:58:00,50.0,41.3,30.33,NW,309,2.0,4.0,72,0.00,,CLR,0.00,VWS V14.01,2013-02-02 13:58:00,
2013-02-02 09:03:00,51.0,41.9,30.33,NW,310,2.0,4.0,71,0.00,,CLR,0.00,VWS V14.01,2013-02-02 14:03:00,
2013-02-02 09:08:00,51.8,42.3,30.33,NW,309,2.0,4.0,70,0.00,,CLR,0.00,VWS V14.01,2013-02-02 14:08:00,
2013-02-02 09:13:00,52.6,42.7,30.33,North,1,0.0,8.0,69,0.00,,CLR,0.00,VWS V14.01,2013-02-02 14:13:00,
2013-02-02 09:18:00,53.5,43.2,30.32,NNW,336,0.0,6.0,68,0.00,,CLR,0.00,VWS V14.01,2013-02-02 14:18:00,
2013-02-02 09:24:00,54.5,43.4,30.32,North,350,2.0,4.0,66,0.00,,CLR,0.00,VWS V14.01,2013-02-02 14:24:00,
2013-02-02 09:29:00,55.5,43.9,30.32,NE,34,2.0,6.0,65,0.00,,CLR,0.00,VWS V14.01,2013-02-02 14:29:00,
2013-02-02 09:34:00,56.4,44.0,30.32,NNW,336,6.0,8.0,63,0.00,,CLR,0.00,VWS V14.01,2013-02-02 14:34:00,
2013-02-02 09:39:00,57.1,44.2,30.32,NNW,332,0.0,6.0,62,0.00,,CLR,0.00,VWS V14.01,2013-02-02 14:39:00,
2013-02-02 09:44:00,58.0,44.6,30.32,NNW,327,2.0,6.0,61,0.00,,CLR,0.00,VWS V14.01,2013-02-02 14:44:00,
2013-02-02 09:49:00,58.7,44.4,30.32,NNW,336,2.0,6.0,59,0.00,,CLR,0.00,VWS V14.01,2013-02-02 14:49:00,
2013-02-02 09:54:00,59.3,44.5,30.32,NW,313,2.0,8.0,58,0.00,,CLR,0.00,VWS V14.01,2013-02-02 14:54:00,
2013-02-02 10:00:00,59.8,44.5,30.32,North,4,2.0,6.0,57,0.00,,CLR,0.00,VWS V14.01,2013-02-02 15:00:00,
2013-02-02 10:05:00,60.3,44.6,30.32,North,4,0.0,0.0,56,0.00,,CLR,0.00,VWS V14.01,2013-02-02 15:05:00,
2013-02-02 10:10:00,60.8,44.5,30.32,NNW,338,0.0,2.0,55,0.00,,CLR,0.00,VWS V14.01,2013-02-02 15:10:00,
2013-02-02 10:15:00,61.3,45.0,30.31,ENE,67,2.0,2.0,55,0.00,,CLR,0.00,VWS V14.01,2013-02-02 15:15:00,
2013-02-02 10:20:00,61.7,44.9,30.31,East,94,0.0,2.0,54,0.00,,CLR,0.00,VWS V14.01,2013-02-02 15:20:00,
2013-02-02 10:25:00,62.3,44.5,30.31,ENE,77,0.0,6.0,52,0.00,,CLR,0.00,VWS V14.01,2013-02-02 15:25:00,
2013-02-02 10:30:00,63.1,44.7,30.31,North,355,0.0,4.0,51,0.00,,CLR,0.00,VWS V14.01,2013-02-02 15:30:00,
2013-02-02 10:35:00,63.6,45.2,30.31,ENE,78,2.0,4.0,51,0.00,,CLR,0.00,VWS V14.01,2013-02-02 15:35:00,
2013-02-02 10:40:00,64.3,45.3,30.31,East,89,4.0,4.0,50,0.00,,CLR,0.00,VWS V14.01,2013-02-02 15:40:00,
2013-02-02 10:46:00,64.8,45.7,30.31,NE,52,0.0,2.0,50,0.00,,CLR,0.00,VWS V14.01,2013-02-02 15:46:00,
2013-02-02 10:51:00,65.3,44.6,30.30,ENE,69,4.0,6.0,47,0.00,,CLR,0.00,VWS V14.01,2013-02-02 15:51:00,
2013-02-02 10:56:00,65.5,44.2,30.30,NNE,18,4.0,4.0,46,0.00,,CLR,0.00,VWS V14.01,2013-02-02 15:56:00,
2013-02-02 11:01:00,65.7,43.2,30.30,North,350,2.0,6.0,44,0.00,,CLR,0.00,VWS V14.01,2013-02-02 16:01:00,
2013-02-02 11:06:00,65.9,42.8,30.30,ENE,72,6.0,8.0,43,0.00,,CLR,0.00,VWS V14.01,2013-02-02 16:06:00,
2013-02-02 11:11:00,66.1,39.8,30.29,ENE,64,2.0,4.0,38,0.00,,CLR,0.00,VWS V14.01,2013-02-02 16:11:00,
2013-02-02 11:16:00,66.5,38.8,30.29,North,350,2.0,4.0,36,0.00,,CLR,0.00,VWS V14.01,2013-02-02 16:16:00,
2013-02-02 11:21:00,67.3,38.7,30.29,East,81,0.0,2.0,35,0.00,,CLR,0.00,VWS V14.01,2013-02-02 16:21:00,
2013-02-02 11:26:00,67.4,40.2,30.29,NNW,328,0.0,8.0,37,0.00,,CLR,0.00,VWS V14.01,2013-02-02 16:26:00,
2013-02-02 11:32:00,67.8,39.9,30.29,East,93,2.0,6.0,36,0.00,,CLR,0.00,VWS V14.01,2013-02-02 16:32:00,
2013-02-02 11:37:00,67.2,38.7,30.28,NW,318,2.0,10.0,35,0.00,,CLR,0.00,VWS V14.01,2013-02-02 16:37:00,
2013-02-02 11:42:00,66.8,38.3,30.28,SSE,157,2.0,8.0,35,0.00,,CLR,0.00,VWS V14.01,2013-02-02 16:42:00,
2013-02-02 11:47:00,67.0,39.2,30.28,North,1,0.0,8.0,36,0.00,,CLR,0.00,VWS V14.01,2013-02-02 16:47:00,
2013-02-02 11:52:00,67.6,38.3,30.28,ENE,64,4.0,6.0,34,0.00,,CLR,0.00,VWS V14.01,2013-02-02 16:52:00,
2013-02-02 11:57:00,67.8,39.2,30.28,North,350,4.0,6.0,35,0.00,,CLR,0.00,VWS V14.01,2013-02-02 16:57:00,
2013-02-02 12:02:00,68.3,38.9,30.27,North,355,4.0,8.0,34,0.00,,FEW040,0.00,VWS V14.01,2013-02-02 17:02:00,
2013-02-02 12:07:00,69.0,39.5,30.27,North,1,0.0,4.0,34,0.00,,FEW040,0.00,VWS V14.01,2013-02-02 17:07:00,
2013-02-02 12:13:00,69.5,38.4,30.26,NNW,345,2.0,4.0,32,0.00,,FEW040,0.00,VWS V14.01,2013-02-02 17:13:00,
2013-02-02 12:18:00,69.4,38.3,30.26,SW,226,4.0,6.0,32,0.00,,FEW040,0.00,VWS V14.01,2013-02-02 17:18:00,
2013-02-02 12:23:00,69.0,37.9,30.26,WNW,299,4.0,8.0,32,0.00,,FEW040,0.00,VWS V14.01,2013-02-02 17:23:00,
2013-02-02 12:28:00,68.9,38.6,30.26,SSW,200,2.0,6.0,33,0.00,,FEW040,0.00,VWS V14.01,2013-02-02 17:28:00,
2013-02-02 12:33:00,68.8,38.5,30.25,SSW,201,0.0,4.0,33,0.00,,FEW040,0.00,VWS V14.01,2013-02-02 17:33:00,
2013-02-02 12:38:00,68.8,38.5,30.25,East,95,0.0,6.0,33,0.00,,FEW040,0.00,VWS V14.01,2013-02-02 17:38:00,
2013-02-02 12:43:00,69.3,39.0,30.25,WNW,300,2.0,6.0,33,0.00,,FEW040,0.00,VWS V14.01,2013-02-02 17:43:00,
2013-02-02 12:49:00,69.8,40.2,30.24,WNW,298,4.0,6.0,34,0.00,,FEW040,0.00,VWS V14.01,2013-02-02 17:49:00,
2013-02-02 12:54:00,70.8,39.5,30.24,WNW,292,4.0,8.0,32,0.00,,FEW040,0.00,VWS V14.01,2013-02-02 17:54:00,
2013-02-02 12:59:00,71.2,39.0,30.24,North,350,0.0,12.0,31,0.00,,FEW040,0.00,VWS V14.01,2013-02-02 17:59:00,
2013-02-02 13:04:00,70.9,38.8,30.23,SSW,213,0.0,10.0,31,0.00,,FEW037,0.00,VWS V14.01,2013-02-02 18:04:00,
2013-02-02 13:09:00,70.4,39.2,30.23,WNW,286,4.0,8.0,32,0.00,,FEW037,0.00,VWS V14.01,2013-02-02 18:09:00,
2013-02-02 13:14:00,70.2,39.0,30.23,NNW,334,4.0,8.0,32,0.00,,FEW037,0.00,VWS V14.01,2013-02-02 18:14:00,
2013-02-02 13:19:00,70.8,39.5,30.22,NW,311,2.0,6.0,32,0.00,,FEW037,0.00,VWS V14.01,2013-02-02 18:19:00,
2013-02-02 13:24:00,71.5,40.1,30.22,SSW,199,8.0,8.0,32,0.00,,FEW037,0.00,VWS V14.01,2013-02-02 18:24:00,
2013-02-02 13:29:00,71.1,39.0,30.22,WNW,294,4.0,10.0,31,0.00,,FEW037,0.00,VWS V14.01,2013-02-02 18:29:00,
2013-02-02 13:34:00,71.1,39.8,30.21,West,266,2.0,6.0,32,0.00,,FEW037,0.00,VWS V14.01,2013-02-02 18:34:00,
2013-02-02 13:39:00,71.1,39.0,30.21,WSW,258,4.0,8.0,31,0.00,,FEW037,0.00,VWS V14.01,2013-02-02 18:39:00,
2013-02-02 13:44:00,71.3,40.7,30.21,SW,226,0.0,8.0,33,0.00,,FEW037,0.00,VWS V14.01,2013-02-02 18:44:00,
2013-02-02 13:49:00,71.6,40.2,30.21,SW,229,4.0,10.0,32,0.00,,FEW037,0.00,VWS V14.01,2013-02-02 18:49:00,
2013-02-02 13:54:00,71.3,40.7,30.20,WSW,251,6.0,6.0,33,0.00,,FEW037,0.00,VWS V14.01,2013-02-02 18:54:00,
2013-02-02 13:59:00,71.4,40.0,30.20,WSW,240,12.0,12.0,32,0.00,,FEW037,0.00,VWS V14.01,2013-02-02 18:59:00,
2013-02-02 14:05:00,71.5,40.1,30.20,WSW,247,8.0,8.0,32,0.00,,FEW040,0.00,VWS V14.01,2013-02-02 19:05:00,
2013-02-02 14:10:00,72.2,39.9,30.20,West,278,2.0,6.0,31,0.00,,FEW040,0.00,VWS V14.01,2013-02-02 19:10:00,
2013-02-02 14:15:00,72.5,40.2,30.20,SW,225,12.0,12.0,31,0.00,,FEW040,0.00,VWS V14.01,2013-02-02 19:15:00,
2013-02-02 14:20:00,72.2,39.9,30.19,SW,222,6.0,6.0,31,0.00,,FEW040,0.00,VWS V14.01,2013-02-02 19:20:00,
2013-02-02 14:25:00,72.5,40.2,30.19,ENE,66,0.0,4.0,31,0.00,,FEW040,0.00,VWS V14.01,2013-02-02 19:25:00,
2013-02-02 14:30:00,72.4,40.9,30.19,SSW,213,4.0,10.0,32,0.00,,FEW040,0.00,VWS V14.01,2013-02-02 19:30:00,
2013-02-02 14:35:00,72.3,41.6,30.19,SSE,147,6.0,6.0,33,0.00,,FEW040,0.00,VWS V14.01,2013-02-02 19:35:00,
2013-02-02 14:40:00,73.0,41.4,30.19,SSE,167,2.0,8.0,32,0.00,,FEW040,0.00,VWS V14.01,2013-02-02 19:40:00,
2013-02-02 14:46:00,73.1,40.7,30.19,SSE,162,4.0,8.0,31,0.00,,FEW040,0.00,VWS V14.01,2013-02-02 19:46:00,
2013-02-02 14:51:00,72.8,40.4,30.18,East,100,4.0,6.0,31,0.00,,FEW040,0.00,VWS V14.01,2013-02-02 19:51:00,
2013-02-02 14:56:00,72.8,39.6,30.18,West,280,4.0,8.0,30,0.00,,FEW040,0.00,VWS V14.01,2013-02-02 19:56:00,
2013-02-02 15:01:00,73.3,39.2,30.18,WNW,295,0.0,8.0,29,0.00,,FEW040,0.00,VWS V14.01,2013-02-02 20:01:00,
2013-02-02 15:06:00,73.6,40.3,30.18,West,268,0.0,6.0,30,0.00,,FEW040,0.00,VWS V14.01,2013-02-02 20:06:00,
2013-02-02 15:11:00,74.0,38.9,30.18,SSW,209,6.0,10.0,28,0.00,,FEW040,0.00,VWS V14.01,2013-02-02 20:11:00,
2013-02-02 15:16:00,73.8,39.6,30.17,SE,144,2.0,8.0,29,0.00,,FEW040,0.00,VWS V14.01,2013-02-02 20:16:00,
2013-02-02 15:21:00,73.7,38.6,30.17,West,267,4.0,8.0,28,0.00,,FEW040,0.00,VWS V14.01,2013-02-02 20:21:00,
2013-02-02 15:27:00,73.8,40.5,30.18,SW,225,2.0,6.0,30,0.00,,FEW040,0.00,VWS V14.01,2013-02-02 20:27:00,
2013-02-02 15:32:00,73.8,40.5,30.17,WSW,247,2.0,10.0,30,0.00,,FEW040,0.00,VWS V14.01,2013-02-02 20:32:00,
2013-02-02 15:37:00,74.0,39.8,30.17,West,267,0.0,6.0,29,0.00,,FEW040,0.00,VWS V14.01,2013-02-02 20:37:00,
2013-02-02 15:42:00,73.8,38.7,30.17,WNW,287,2.0,8.0,28,0.00,,FEW040,0.00,VWS V14.01,2013-02-02 20:42:00,
2013-02-02 15:47:00,73.7,39.5,30.17,SSE,155,4.0,8.0,29,0.00,,FEW040,0.00,VWS V14.01,2013-02-02 20:47:00,
2013-02-02 15:52:00,73.3,39.2,30.17,South,187,2.0,6.0,29,0.00,,FEW040,0.00,VWS V14.01,2013-02-02 20:52:00,
2013-02-02 15:57:00,73.0,38.9,30.17,West,276,6.0,6.0,29,0.00,,FEW040,0.00,VWS V14.01,2013-02-02 20:57:00,
2013-02-02 16:02:00,73.3,39.2,30.17,NW,326,2.0,8.0,29,0.00,,FEW040,0.00,VWS V14.01,2013-02-02 21:02:00,
2013-02-02 16:07:00,73.5,40.2,30.17,SW,230,4.0,6.0,30,0.00,,FEW040,0.00,VWS V14.01,2013-02-02 21:07:00,
2013-02-02 16:13:00,73.6,39.4,30.16,West,270,4.0,4.0,29,0.00,,FEW040,0.00,VWS V14.01,2013-02-02 21:13:00,
2013-02-02 16:18:00,73.2,39.9,30.16,WNW,299,0.0,4.0,30,0.00,,FEW040,0.00,VWS V14.01,2013-02-02 21:18:00,
2013-02-02 16:23:00,73.6,40.3,30.16,SE,140,0.0,8.0,30,0.00,,FEW040,0.00,VWS V14.01,2013-02-02 21:23:00,
2013-02-02 16:28:00,73.7,39.5,30.16,West,271,6.0,6.0,29,0.00,,FEW040,0.00,VWS V14.01,2013-02-02 21:28:00,
2013-02-02 16:33:00,73.1,39.8,30.16,SSW,194,0.0,10.0,30,0.00,,FEW040,0.00,VWS V14.01,2013-02-02 21:33:00,
2013-02-02 16:38:00,73.1,39.8,30.16,NE,43,6.0,6.0,30,0.00,,FEW040,0.00,VWS V14.01,2013-02-02 21:38:00,
2013-02-02 16:43:00,73.0,38.9,30.16,North,4,4.0,4.0,29,0.00,,FEW040,0.00,VWS V14.01,2013-02-02 21:43:00,
2013-02-02 16:48:00,73.3,39.2,30.16,SW,236,10.0,12.0,29,0.00,,FEW040,0.00,VWS V14.01,2013-02-02 21:48:00,
2013-02-02 16:54:00,72.9,39.7,30.16,West,266,2.0,6.0,30,0.00,,FEW040,0.00,VWS V14.01,2013-02-02 21:54:00,
2013-02-02 16:59:00,72.7,38.6,30.16,WNW,292,0.0,6.0,29,0.00,,FEW040,0.00,VWS V14.01,2013-02-02 21:59:00,
2013-02-02 17:04:00,72.5,39.3,30.16,WNW,285,0.0,2.0,30,0.00,,FEW040,0.00,VWS V14.01,2013-02-02 22:04:00,
2013-02-02 17:09:00,72.1,39.0,30.16,WNW,285,2.0,4.0,30,0.00,,FEW040,0.00,VWS V14.01,2013-02-02 22:09:00,
2013-02-02 17:14:00,71.6,39.4,30.16,WNW,286,4.0,4.0,31,0.00,,FEW040,0.00,VWS V14.01,2013-02-02 22:14:00,
2013-02-02 17:19:00,71.0,38.9,30.16,WNW,286,2.0,6.0,31,0.00,,FEW040,0.00,VWS V14.01,2013-02-02 22:19:00,
2013-02-02 17:24:00,70.6,38.5,30.16,WNW,286,0.0,2.0,31,0.00,,FEW040,0.00,VWS V14.01,2013-02-02 22:24:00,
2013-02-02 17:29:00,70.2,38.2,30.16,South,188,0.0,10.0,31,0.00,,FEW040,0.00,VWS V14.01,2013-02-02 22:29:00,
2013-02-02 17:34:00,69.8,39.4,30.16,SSW,206,2.0,10.0,33,0.00,,FEW040,0.00,VWS V14.01,2013-02-02 22:34:00,
2013-02-02 17:40:00,69.5,38.4,30.16,SW,216,0.0,6.0,32,0.00,,FEW040,0.00,VWS V14.01,2013-02-02 22:40:00,
2013-02-02 17:45:00,69.3,39.0,30.16,SW,216,0.0,2.0,33,0.00,,FEW040,0.00,VWS V14.01,2013-02-02 22:45:00,
2013-02-02 17:50:00,68.9,38.6,30.16,West,259,0.0,4.0,33,0.00,,FEW040,0.00,VWS V14.01,2013-02-02 22:50:00,
2013-02-02 17:55:00,68.3,39.6,30.16,WSW,242,0.0,0.0,35,0.00,,FEW040,0.00,VWS V14.01,2013-02-02 22:55:00,
2013-02-02 18:00:00,67.8,39.2,30.16,WSW,242,0.0,0.0,35,0.00,,FEW040,0.00,VWS V14.01,2013-02-02 23:00:00,
2013-02-02 18:05:00,67.2,38.7,30.16,WSW,242,0.0,0.0,35,0.00,,SCT300,0.00,VWS V14.01,2013-02-02 23:05:00,
2013-02-02 18:10:00,66.7,38.2,30.16,WSW,242,0.0,0.0,35,0.00,,SCT300,0.00,VWS V14.01,2013-02-02 23:10:00,
2013-02-02 18:15:00,66.2,37.8,30.16,WSW,242,0.0,0.0,35,0.00,,SCT300,0.00,VWS V14.01,2013-02-02 23:15:00,
2013-02-02 18:20:00,65.7,38.0,30.16,WSW,242,0.0,0.0,36,0.00,,SCT300,0.00,VWS V14.01,2013-02-02 23:20:00,
2013-02-02 18:25:00,65.1,38.9,30.16,WSW,242,0.0,0.0,38,0.00,,SCT300,0.00,VWS V14.01,2013-02-02 23:25:00,
2013-02-02 18:30:00,64.4,38.9,30.16,WSW,242,0.0,0.0,39,0.00,,SCT300,0.00,VWS V14.01,2013-02-02 23:30:00,
2013-02-02 18:36:00,63.7,39.6,30.16,WSW,242,0.0,0.0,41,0.00,,SCT300,0.00,VWS V14.01,2013-02-02 23:36:00,
2013-02-02 18:41:00,63.1,39.7,30.16,WSW,242,0.0,0.0,42,0.00,,SCT300,0.00,VWS V14.01,2013-02-02 23:41:00,
2013-02-02 18:46:00,62.4,39.6,30.16,WSW,242,0.0,0.0,43,0.00,,SCT300,0.00,VWS V14.01,2013-02-02 23:46:00,
2013-02-02 18:51:00,61.7,40.2,30.16,WSW,242,0.0,0.0,45,0.00,,SCT300,0.00,VWS V14.01,2013-02-02 23:51:00,
2013-02-02 18:56:00,61.0,41.7,30.16,WSW,242,0.0,0.0,49,0.00,,SCT300,0.00,VWS V14.01,2013-02-02 23:56:00,
2013-02-02 19:01:00,60.3,41.1,30.17,WSW,242,0.0,0.0,49,0.00,,SCT300,0.00,VWS V14.01,2013-02-03 00:01:00,
2013-02-02 19:06:00,59.8,40.6,30.17,WSW,242,0.0,0.0,49,0.00,,SCT300,0.00,VWS V14.01,2013-02-03 00:06:00,
2013-02-02 19:11:00,59.3,41.2,30.17,WSW,242,0.0,0.0,51,0.00,,SCT300,0.00,VWS V14.01,2013-02-03 00:11:00,
2013-02-02 19:16:00,58.7,40.1,30.17,WSW,242,0.0,0.0,50,0.00,,SCT300,0.00,VWS V14.01,2013-02-03 00:16:00,
2013-02-02 19:21:00,58.3,41.3,30.17,WSW,242,0.0,0.0,53,0.00,,SCT300,0.00,VWS V14.01,2013-02-03 00:21:00,
2013-02-02 19:27:00,57.8,41.3,30.17,WSW,242,0.0,0.0,54,0.00,,SCT300,0.00,VWS V14.01,2013-02-03 00:27:00,
2013-02-02 19:32:00,57.4,41.8,30.17,WSW,242,0.0,0.0,56,0.00,,SCT300,0.00,VWS V14.01,2013-02-03 00:32:00,
2013-02-02 19:37:00,56.9,41.4,30.17,WSW,242,0.0,0.0,56,0.00,,SCT300,0.00,VWS V14.01,2013-02-03 00:37:00,
2013-02-02 19:42:00,56.4,40.9,30.17,WSW,242,0.0,0.0,56,0.00,,SCT300,0.00,VWS V14.01,2013-02-03 00:42:00,
2013-02-02 19:47:00,56.1,42.0,30.17,WSW,242,0.0,0.0,59,0.00,,SCT300,0.00,VWS V14.01,2013-02-03 00:47:00,
2013-02-02 19:52:00,55.8,43.0,30.17,WSW,242,0.0,0.0,62,0.00,,SCT300,0.00,VWS V14.01,2013-02-03 00:52:00,
2013-02-02 19:57:00,55.3,42.1,30.18,WSW,242,0.0,0.0,61,0.00,,SCT300,0.00,VWS V14.01,2013-02-03 00:57:00,
2013-02-02 20:02:00,55.0,41.8,30.18,WSW,242,0.0,0.0,61,0.00,,FEW100,0.00,VWS V14.01,2013-02-03 01:02:00,
2013-02-02 20:08:00,54.7,42.0,30.18,WSW,242,0.0,0.0,62,0.00,,FEW100,0.00,VWS V14.01,2013-02-03 01:08:00,
2013-02-02 20:13:00,54.6,42.7,30.17,WSW,242,0.0,2.0,64,0.00,,FEW100,0.00,VWS V14.01,2013-02-03 01:13:00,
2013-02-02 20:18:00,54.6,43.1,30.18,WSW,242,0.0,2.0,65,0.00,,FEW100,0.00,VWS V14.01,2013-02-03 01:18:00,
2013-02-02 20:23:00,54.6,43.9,30.18,WSW,242,0.0,2.0,67,0.00,,FEW100,0.00,VWS V14.01,2013-02-03 01:23:00,
2013-02-02 20:28:00,54.4,43.3,30.18,WSW,242,0.0,2.0,66,0.00,,FEW100,0.00,VWS V14.01,2013-02-03 01:28:00,
2013-02-02 20:33:00,54.2,43.1,30.19,WSW,242,0.0,0.0,66,0.00,,FEW100,0.00,VWS V14.01,2013-02-03 01:33:00,
2013-02-02 20:38:00,54.0,43.3,30.18,WSW,242,0.0,0.0,67,0.00,,FEW100,0.00,VWS V14.01,2013-02-03 01:38:00,
2013-02-02 20:43:00,53.8,43.1,30.18,WSW,242,0.0,0.0,67,0.00,,FEW100,0.00,VWS V14.01,2013-02-03 01:43:00,
2013-02-02 20:48:00,53.5,43.2,30.18,WSW,242,0.0,0.0,68,0.00,,FEW100,0.00,VWS V14.01,2013-02-03 01:48:00,
2013-02-02 20:53:00,53.2,42.9,30.18,WSW,242,0.0,0.0,68,0.00,,FEW100,0.00,VWS V14.01,2013-02-03 01:53:00,
2013-02-02 20:59:00,52.9,43.0,30.18,WSW,242,0.0,0.0,69,0.00,,FEW100,0.00,VWS V14.01,2013-02-03 01:59:00,
2013-02-02 21:04:00,52.7,43.6,30.18,WSW,242,0.0,0.0,71,0.00,,FEW100,0.00,VWS V14.01,2013-02-03 02:04:00,
2013-02-02 21:09:00,52.6,43.5,30.18,WSW,242,0.0,0.0,71,0.00,,FEW100,0.00,VWS V14.01,2013-02-03 02:09:00,
2013-02-02 21:14:00,52.5,44.1,30.18,WSW,242,0.0,0.0,73,0.00,,FEW100,0.00,VWS V14.01,2013-02-03 02:14:00,
2013-02-02 21:19:00,52.3,43.9,30.18,WSW,242,0.0,2.0,73,0.00,,FEW100,0.00,VWS V14.01,2013-02-03 02:19:00,
2013-02-02 21:24:00,52.2,43.8,30.18,WSW,242,0.0,2.0,73,0.00,,FEW100,0.00,VWS V14.01,2013-02-03 02:24:00,
2013-02-02 21:29:00,51.9,43.5,30.18,WSW,242,0.0,0.0,73,0.00,,FEW100,0.00,VWS V14.01,2013-02-03 02:29:00,
2013-02-02 21:34:00,51.8,43.8,30.18,WSW,242,0.0,0.0,74,0.00,,FEW100,0.00,VWS V14.01,2013-02-03 02:34:00,
2013-02-02 21:40:00,51.6,44.0,30.18,WSW,242,0.0,0.0,75,0.00,,FEW100,0.00,VWS V14.01,2013-02-03 02:40:00,
2013-02-02 21:45:00,51.5,43.8,30.18,WSW,242,0.0,0.0,75,0.00,,FEW100,0.00,VWS V14.01,2013-02-03 02:45:00,
2013-02-02 21:50:00,51.3,44.0,30.18,WSW,242,0.0,0.0,76,0.00,,FEW100,0.00,VWS V14.01,2013-02-03 02:50:00,
2013-02-02 21:55:00,51.2,43.9,30.18,WSW,242,0.0,0.0,76,0.00,,FEW100,0.00,VWS V14.01,2013-02-03 02:55:00,
2013-02-02 22:00:00,51.0,44.0,30.18,WSW,242,0.0,0.0,77,0.00,,FEW100,0.00,VWS V14.01,2013-02-03 03:00:00,
2013-02-02 22:05:00,51.0,44.0,30.18,WSW,242,0.0,0.0,77,0.00,,CLR,0.00,VWS V14.01,2013-02-03 03:05:00,
2013-02-02 22:10:00,50.9,44.3,30.18,WSW,242,0.0,0.0,78,0.00,,CLR,0.00,VWS V14.01,2013-02-03 03:10:00,
2013-02-02 22:15:00,50.6,44.0,30.18,WSW,242,0.0,0.0,78,0.00,,CLR,0.00,VWS V14.01,2013-02-03 03:15:00,
2013-02-02 22:20:00,50.6,44.0,30.18,WSW,242,0.0,0.0,78,0.00,,CLR,0.00,VWS V14.01,2013-02-03 03:20:00,
2013-02-02 22:25:00,50.6,44.0,30.18,WSW,242,0.0,0.0,78,0.00,,CLR,0.00,VWS V14.01,2013-02-03 03:25:00,
2013-02-02 22:30:00,50.5,43.9,30.18,WSW,242,0.0,0.0,78,0.00,,CLR,0.00,VWS V14.01,2013-02-03 03:30:00,
2013-02-02 22:35:00,50.3,44.0,30.18,WSW,242,0.0,0.0,79,0.00,,CLR,0.00,VWS V14.01,2013-02-03 03:35:00,
2013-02-02 22:40:00,50.1,44.2,30.18,WSW,242,0.0,0.0,80,0.00,,CLR,0.00,VWS V14.01,2013-02-03 03:40:00,
2013-02-02 22:45:00,49.9,44.0,30.18,WSW,242,0.0,0.0,80,0.00,,CLR,0.00,VWS V14.01,2013-02-03 03:45:00,
2013-02-02 22:51:00,49.7,44.1,30.18,WSW,242,0.0,0.0,81,0.00,,CLR,0.00,VWS V14.01,2013-02-03 03:51:00,
2013-02-02 22:56:00,49.6,44.0,30.18,WSW,242,0.0,0.0,81,0.00,,CLR,0.00,VWS V14.01,2013-02-03 03:56:00,
2013-02-02 23:01:00,49.5,44.2,30.18,WSW,242,0.0,0.0,82,0.00,,SCT250,0.00,VWS V14.01,2013-02-03 04:01:00,
2013-02-02 23:06:00,49.4,44.1,30.18,WSW,242,0.0,0.0,82,0.00,,SCT250,0.00,VWS V14.01,2013-02-03 04:06:00,
2013-02-02 23:11:00,49.3,44.0,30.18,WSW,242,0.0,0.0,82,0.00,,SCT250,0.00,VWS V14.01,2013-02-03 04:11:00,
2013-02-02 23:16:00,49.1,44.2,30.18,WSW,242,0.0,0.0,83,0.00,,SCT250,0.00,VWS V14.01,2013-02-03 04:16:00,
2013-02-02 23:21:00,49.0,44.1,30.18,WSW,242,0.0,0.0,83,0.00,,SCT250,0.00,VWS V14.01,2013-02-03 04:21:00,
2013-02-02 23:26:00,48.9,44.0,30.18,WSW,242,0.0,0.0,83,0.00,,SCT250,0.00,VWS V14.01,2013-02-03 04:26:00,
2013-02-02 23:32:00,48.8,43.9,30.18,WSW,242,0.0,0.0,83,0.00,,SCT250,0.00,VWS V14.01,2013-02-03 04:32:00,
2013-02-02 23:37:00,48.7,44.1,30.18,WSW,242,0.0,0.0,84,0.00,,SCT250,0.00,VWS V14.01,2013-02-03 04:37:00,
2013-02-02 23:42:00,48.5,44.2,30.18,WSW,242,0.0,0.0,85,0.00,,SCT250,0.00,VWS V14.01,2013-02-03 04:42:00,
2013-02-02 23:47:00,48.3,44.0,30.17,WSW,242,0.0,0.0,85,0.00,,SCT250,0.00,VWS V14.01,2013-02-03 04:47:00,
2013-02-02 23:52:00,48.2,43.9,30.17,WSW,242,0.0,0.0,85,0.00,,SCT250,0.00,VWS V14.01,2013-02-03 04:52:00,
2013-02-02 23:57:00,48.0,43.7,30.17,WSW,242,0.0,0.0,85,0.00,,SCT250,0.00,VWS V14.01,2013-02-03 04:57:00,